Weather History for KLBF - March, 2014

Change the Weather History Date:

Thursday, March 13, 2014

  Actual Average Record
Temperature  
Mean Temperature 44 °F 37 °F  
Max Temperature 68 °F 52 °F 78 °F (2012)
Min Temperature 19 °F 23 °F -19 °F (1880)
Degree Days  
Heating Degree Days 22 28  
Month to date heating degree days 386  
Since 1 July heating degree days 5414  
Cooling Degree Days 0 0  
Month to date cooling degree days 0  
Year to date cooling degree days 0  
Moisture  
Dew Point 20 °F    
Average Humidity 52    
Maximum Humidity 92    
Minimum Humidity 5    
Precipitation  
Precipitation 0.00 in 0.03 in 0.80 in (1973)
Month to date precipitation 0.37  
Year to date precipitation 1.21  
Snow  
Snow 0.00 in 0.10 in 4.00 in (1912)
Month to date snowfall 2.0  
Since 1 July snowfall 22.9  
Snow Depth -    
Sea Level Pressure  
Sea Level Pressure 29.95 in    
Wind  
Wind Speed 7 mph (WNW)    
Max Wind Speed 21 mph    
Max Gust Speed 26 mph    
Visibility 10 miles    
Events      
T = Trace of Precipitation, MM = Missing Value Source: NWS Daily Summary

Daily Weather History Graph

Daily Weather History Graph

Search for Another Location

Airport or City:

Trip Planner

Search our weather history database for the weather conditions in past years. The results will help you decide how hot, cold, wet, or windy it might be!

Date:

Astronomy

Mar. 13, 2014 Rise Set
Actual Time 7:57 AM CDT 7:47 PM CDT
Civil Twilight 7:30 AM CDT 8:14 PM CDT
Nautical Twilight 6:58 AM CDT 8:46 PM CDT
Astronomical Twilight 6:25 AM CDT 9:19 PM CDT
Moon 5:13 PM CDT (3/13) 6:06 AM CDT (3/13)
Length of Visible Light 12h 44m
Length of Day
11h 49m
Waxing Gibbous, 91% of the Moon is Illuminated
Mar 13
Waxing Gibbous
Mar 16
Full
Mar 23
Last Quarter
Mar 30
New
Apr 7
First Quarter

Hourly Weather History & Observations

Time (CDT) Temp. Windchill Dew Point Humidity Pressure Visibility Wind Dir Wind Speed Gust Speed Precip Events Conditions
12:53 AM 25.0 °F 18.1 °F 19.9 °F 81% 30.16 in 10.0 mi NW 5.8 mph - N/A   Clear
1:53 AM 26.1 °F 19.4 °F 19.9 °F 78% 30.15 in 10.0 mi NW 5.8 mph - N/A   Clear
2:53 AM 25.0 °F 18.1 °F 19.9 °F 81% 30.14 in 10.0 mi NW 5.8 mph - N/A   Clear
3:53 AM 23.0 °F 17.0 °F 19.0 °F 85% 30.12 in 10.0 mi NW 4.6 mph - N/A   Clear
4:53 AM 23.0 °F 17.0 °F 19.0 °F 85% 30.11 in 10.0 mi NW 4.6 mph - N/A   Clear
5:53 AM 21.9 °F 15.7 °F 18.0 °F 85% 30.09 in 10.0 mi NW 4.6 mph - N/A   Clear
6:53 AM 19.9 °F 14.9 °F 18.0 °F 92% 30.10 in 10.0 mi WNW 3.5 mph - N/A   Clear
7:53 AM 19.9 °F - 17.1 °F 89% 30.10 in 10.0 mi Calm Calm - N/A   Clear
8:53 AM 27.0 °F 23.0 °F 23.0 °F 85% 30.09 in 7.0 mi WNW 3.5 mph - N/A   Clear
9:53 AM 36.0 °F 30.3 °F 26.1 °F 67% 30.08 in 6.0 mi West 6.9 mph - N/A   Haze
10:53 AM 45.0 °F 40.6 °F 28.0 °F 52% 30.04 in 10.0 mi West 8.1 mph - N/A   Clear
12:53 PM 59.0 °F - 21.0 °F 23% 29.92 in 10.0 mi SW 15.0 mph - N/A   Clear
1:53 PM 63.0 °F - 19.9 °F 19% 29.86 in 10.0 mi SW 15.0 mph 24.2 mph N/A   Clear
2:53 PM 66.0 °F - 14.0 °F 13% 29.81 in 10.0 mi WSW 16.1 mph 26.5 mph N/A   Clear
3:53 PM 66.9 °F - 14.0 °F 13% 29.76 in 10.0 mi SW 11.5 mph - N/A   Clear
4:53 PM 68.0 °F - 12.9 °F 12% 29.74 in 10.0 mi SW 13.8 mph 18.4 mph N/A   Clear
5:53 PM 66.9 °F - 10.9 °F 11% 29.72 in 10.0 mi WSW 11.5 mph - N/A   Clear
6:53 PM 60.1 °F - 18.0 °F 20% 29.70 in 10.0 mi West 5.8 mph - N/A   Clear
7:53 PM 52.0 °F - 21.9 °F 31% 29.70 in 10.0 mi North 3.5 mph - N/A   Clear
8:53 PM 44.1 °F 42.5 °F 28.0 °F 53% 29.69 in 10.0 mi SE 3.5 mph - N/A   Clear
9:53 PM 37.9 °F - 23.0 °F 55% 29.70 in 10.0 mi Calm Calm - N/A   Clear
10:53 PM 32.0 °F 26.4 °F 24.1 °F 73% 29.71 in 10.0 mi NW 5.8 mph - N/A   Clear
11:53 PM 46.9 °F - 24.1 °F 41% 29.74 in 10.0 mi North 20.7 mph 26.5 mph N/A   Clear